Hourly Data Report for July 01, 2022

MANIWAKI AIRPORT
QUEBEC
Current Station Operator: ECCC - MSC

46°16'29.000" N
75°59'31.000" W
199.70 m
7034482
71721
WMJ

Download Data

Hourly Data (July 2022)
Hourly Data Report for July 1, 2022
TIME
LST
Temp Definition
°C
Dew Point Definition
°C
Rel Hum Definition
%
Precip. Amount Definition
mm

Wind Dir Definition
10's deg

Wind Spd Definition
km/h
Visibility Definition
km
Stn Press Definition
kPa
Hmdx Definition


Wind Chill Definition


Weather Definition


00:00 19.1 13.1 69 0.0 18 12   98.87     LegendNANA
01:00 18.9 13.4 70 0.0 19 13   98.78     LegendNANA
02:00 19.3 13.9 71 0.0 19 15   98.74     LegendNANA
03:00 18.7 14.1 75 0.0 19 7   98.70     LegendNANA
04:00 17.9 14.3 80 0.0 19 9   98.66     LegendNANA
05:00 18.4 14.4 78 0.0 21 10   98.65     LegendNANA
06:00 18.5 14.7 78 0.0 21 9   98.71     LegendNANA
07:00 17.4 16.5 94 4.2 21 16   98.81     LegendNANA
08:00 17.8 16.7 94 2.2 21 14   98.86     LegendNANA
09:00 17.6 16.6 93 1.5 16 11   98.74     LegendNANA
10:00 19.1 17.1 88 0.0 14 7   98.63     LegendNANA
11:00 20.3 17.0 81 0.0 19 14   98.57 26   LegendNANA
12:00 21.4 17.1 77 0.0 21 19   98.60 27   LegendNANA
13:00 22.0 16.9 73 0.0 20 19   98.54 27   LegendNANA
14:00 22.0 17.5 76 0.0 22 10   98.54 28   LegendNANA
15:00 21.5 17.4 77 0.0 21 15   98.44 27   LegendNANA
16:00 21.3 17.8 81 0.0 27 8   98.48 27   LegendNANA
17:00 24.0 18.4 71 0.0 24 12   98.42 30   LegendNANA
18:00 23.8 17.9 69 0.0 23 13   98.39 30   LegendNANA
19:00 22.7 18.3 77 0.0 22 9   98.38 29   LegendNANA
20:00 20.7 17.7 83 0.0 22 7   98.36 26   LegendNANA
21:00 18.2 17.4 95 0.0 21 7   98.37     LegendNANA
22:00 19.5 17.3 87 0.0 22 12   98.35     LegendNANA
23:00 19.5 16.3 81 0.0 25 13   98.32     LegendNANA

Notes on Data Quality.

Legend

  • E = Estimated
  • M = Missing
  • NA = Not Available*
  • [empty] = Indicates an unobserved value
Date modified: